Capitol Logistics 251


PANC
Ted Stevens Anchorage International Airport
Anchorage, Alaska, US
KHSV
Huntsville International Airport
Huntsville, Alabama, US

Route Details

Aircraft Information
Primary: Boeing 767-300BDSF
Backup: Not Available
Route Data
Distance: 2850nm
Sched. Duration: 6h 00m
Avg. Duration: 6h 26m (+26m)
Times Flown: 11
Recm'd Route: TED YESKA NCA13 YXY J515 YYE J537 YPE J601 XD YWV J475 VLN J483 MOT ABR Q19 DSM J45 IRK FAM J151 VUZ
Planned Altitude: 33,000ft
Origin Wx: PANC 061153Z 28006KT 10SM SCT023 BKN026 BKN047 13/11 A3002 RMK AO2 SLP167 T01330106 10150 20133 50000 $
Dest. Wx: KHSV 061153Z 10004KT 10SM BKN200 BKN250 24/22 A2999 RMK AO2 SLP146 70047 T02390217 10239 20217 53017 $
Notes:

Financial History
Total Freight: 1,363,328lbs
Average Load: 123,939lbs/flt
Fuel Used: 1,009,863lbs
Avg. Fuel Used: 91,806lbs/flt
Fuel Expense: $1,256,298
Avg. Fuel Expense: $114,209
Avg. Fuel Cost: $1.24/lbs
Total Gross Income: $2,803,219
Pilot Pay: $2,269
Total Expenses: $303,320
Total Revenue: $1,227,087
Average Revenue: $254,838.07